Year,Month,Day,Hour,Minute,Value (Times are PST for temperature in C)
2008,06,28,00,00,14.70
2008,06,28,00,01,14.70
2008,06,28,00,02,14.60
2008,06,28,00,03,14.60
2008,06,28,00,04,14.50
2008,06,28,00,05,14.50
2008,06,28,00,06,14.40
2008,06,28,00,07,14.40
2008,06,28,00,08,14.40
2008,06,28,00,09,14.40
2008,06,28,00,10,14.30
2008,06,28,00,11,14.30
2008,06,28,00,12,14.30
2008,06,28,00,13,14.30
2008,06,28,00,14,14.30
2008,06,28,00,15,14.30
2008,06,28,00,16,14.30
2008,06,28,00,17,14.30
2008,06,28,00,18,14.30
2008,06,28,00,19,14.30
2008,06,28,00,20,14.30
2008,06,28,00,21,14.30
2008,06,28,00,22,14.30
2008,06,28,00,23,14.30
2008,06,28,00,24,14.30
2008,06,28,00,25,14.30
2008,06,28,00,26,14.30
2008,06,28,00,27,14.30
2008,06,28,00,28,14.30
2008,06,28,00,29,14.30
2008,06,28,00,30,14.30
2008,06,28,00,31,14.20
2008,06,28,00,32,14.20
2008,06,28,00,33,14.20
2008,06,28,00,34,14.20
2008,06,28,00,35,14.20
2008,06,28,00,36,14.20
2008,06,28,00,37,14.10
2008,06,28,00,38,14.10
2008,06,28,00,39,14.10
2008,06,28,00,40,14.00
2008,06,28,00,41,14.00
2008,06,28,00,42,14.00
2008,06,28,00,43,13.90
2008,06,28,00,44,13.90
2008,06,28,00,45,13.90
2008,06,28,00,46,13.90
2008,06,28,00,47,13.90
2008,06,28,00,48,13.90
2008,06,28,00,49,13.80
2008,06,28,00,50,13.80
2008,06,28,00,51,13.80
2008,06,28,00,52,13.80
2008,06,28,00,53,13.80
2008,06,28,00,54,13.80
2008,06,28,00,55,13.80
2008,06,28,00,56,13.80
2008,06,28,00,57,13.80
2008,06,28,00,58,13.80
2008,06,28,00,59,13.70
2008,06,28,01,00,13.70
2008,06,28,01,01,13.70
2008,06,28,01,02,13.70
2008,06,28,01,03,13.70
2008,06,28,01,04,13.70
2008,06,28,01,05,13.70
2008,06,28,01,06,13.70
2008,06,28,01,07,13.70
2008,06,28,01,08,13.70
2008,06,28,01,09,13.70
2008,06,28,01,10,13.70
2008,06,28,01,11,13.70
2008,06,28,01,12,13.70
2008,06,28,01,13,13.70
2008,06,28,01,14,13.70
2008,06,28,01,15,13.70
2008,06,28,01,16,13.60
2008,06,28,01,17,13.60
2008,06,28,01,18,13.60
2008,06,28,01,19,13.60
2008,06,28,01,20,13.60
2008,06,28,01,21,13.60
2008,06,28,01,22,13.50
2008,06,28,01,23,13.50
2008,06,28,01,24,13.50
2008,06,28,01,25,13.40
2008,06,28,01,26,13.40
2008,06,28,01,27,13.40
2008,06,28,01,28,13.40
2008,06,28,01,29,13.30
2008,06,28,01,30,13.30
2008,06,28,01,31,13.30
2008,06,28,01,32,13.30
2008,06,28,01,33,13.30
2008,06,28,01,34,13.30
2008,06,28,01,35,13.30
2008,06,28,01,36,13.30
2008,06,28,01,37,13.30
2008,06,28,01,38,13.30
2008,06,28,01,39,13.20
2008,06,28,01,40,13.20
2008,06,28,01,41,13.20
2008,06,28,01,42,13.20
2008,06,28,01,43,13.20
2008,06,28,01,44,13.30
2008,06,28,01,45,13.20
2008,06,28,01,46,13.30
2008,06,28,01,47,13.30
2008,06,28,01,48,13.30
2008,06,28,01,49,13.20
2008,06,28,01,50,13.20
2008,06,28,01,51,13.20
2008,06,28,01,52,13.20
2008,06,28,01,53,13.10
2008,06,28,01,54,13.10
2008,06,28,01,55,13.10
2008,06,28,01,56,13.10
2008,06,28,01,57,13.00
2008,06,28,01,58,13.00
2008,06,28,01,59,13.00
2008,06,28,02,00,13.00
2008,06,28,02,01,12.90
2008,06,28,02,02,12.90
2008,06,28,02,03,12.90
2008,06,28,02,04,12.90
2008,06,28,02,05,12.90
2008,06,28,02,06,12.90
2008,06,28,02,07,12.90
2008,06,28,02,08,12.90
2008,06,28,02,09,12.90
2008,06,28,02,10,12.90
2008,06,28,02,11,12.90
2008,06,28,02,12,12.90
2008,06,28,02,13,12.90
2008,06,28,02,14,12.90
2008,06,28,02,15,12.90
2008,06,28,02,16,12.80
2008,06,28,02,17,12.80
2008,06,28,02,18,12.80
2008,06,28,02,19,12.80
2008,06,28,02,20,12.80
2008,06,28,02,21,12.80
2008,06,28,02,22,12.80
2008,06,28,02,23,12.80
2008,06,28,02,24,12.80
2008,06,28,02,25,12.80
2008,06,28,02,26,12.80
2008,06,28,02,27,12.70
2008,06,28,02,28,12.70
2008,06,28,02,29,12.70
2008,06,28,02,30,12.70
2008,06,28,02,31,12.70
2008,06,28,02,32,12.60
2008,06,28,02,33,12.60
2008,06,28,02,34,12.60
2008,06,28,02,35,12.60
2008,06,28,02,36,12.60
2008,06,28,02,37,12.60
2008,06,28,02,38,12.60
2008,06,28,02,39,12.60
2008,06,28,02,40,12.60
2008,06,28,02,41,12.60
2008,06,28,02,42,12.60
2008,06,28,02,43,12.60
2008,06,28,02,44,12.60
2008,06,28,02,45,12.60
2008,06,28,02,46,12.60
2008,06,28,02,47,12.50
2008,06,28,02,48,12.50
2008,06,28,02,49,12.50
2008,06,28,02,50,12.40
2008,06,28,02,51,12.40
2008,06,28,02,52,12.40
2008,06,28,02,53,12.40
2008,06,28,02,54,12.40
2008,06,28,02,55,12.30
2008,06,28,02,56,12.30
2008,06,28,02,57,12.40
2008,06,28,02,58,12.30
2008,06,28,02,59,12.30
2008,06,28,03,00,12.30
2008,06,28,03,01,12.30
2008,06,28,03,02,12.30
2008,06,28,03,03,12.30
2008,06,28,03,04,12.30
2008,06,28,03,05,12.30
2008,06,28,03,06,12.30
2008,06,28,03,07,12.30
2008,06,28,03,08,12.30
2008,06,28,03,09,12.30
2008,06,28,03,10,12.30
2008,06,28,03,11,12.30
2008,06,28,03,12,12.30
2008,06,28,03,13,12.30
2008,06,28,03,14,12.30
2008,06,28,03,15,12.30
2008,06,28,03,16,12.30
2008,06,28,03,17,12.30
2008,06,28,03,18,12.30
2008,06,28,03,19,12.30
2008,06,28,03,20,12.40
2008,06,28,03,21,12.40
2008,06,28,03,22,12.40
2008,06,28,03,23,12.40
2008,06,28,03,24,12.40
2008,06,28,03,25,12.40
2008,06,28,03,26,12.40
2008,06,28,03,27,12.40
2008,06,28,03,28,12.40
2008,06,28,03,29,12.30
2008,06,28,03,30,12.30
2008,06,28,03,31,12.30
2008,06,28,03,32,12.30
2008,06,28,03,33,12.30
2008,06,28,03,34,12.30
2008,06,28,03,35,12.30
2008,06,28,03,36,12.30
2008,06,28,03,37,12.20
2008,06,28,03,38,12.20
2008,06,28,03,39,12.20
2008,06,28,03,40,12.20
2008,06,28,03,41,12.20
2008,06,28,03,42,12.20
2008,06,28,03,43,12.20
2008,06,28,03,44,12.10
2008,06,28,03,45,12.20
2008,06,28,03,46,12.20
2008,06,28,03,47,12.10
2008,06,28,03,48,12.10
2008,06,28,03,49,12.10
2008,06,28,03,50,12.10
2008,06,28,03,51,12.10
2008,06,28,03,52,12.00
2008,06,28,03,53,12.00
2008,06,28,03,54,12.00
2008,06,28,03,55,11.90
2008,06,28,03,56,11.90
2008,06,28,03,57,11.90
2008,06,28,03,58,11.90
2008,06,28,03,59,11.90
2008,06,28,04,00,11.90
2008,06,28,04,01,11.80
2008,06,28,04,02,11.80
2008,06,28,04,03,11.80
2008,06,28,04,04,11.80
2008,06,28,04,05,11.80
2008,06,28,04,06,11.80
2008,06,28,04,07,11.70
2008,06,28,04,08,11.70
2008,06,28,04,09,11.70
2008,06,28,04,10,11.70
2008,06,28,04,11,11.70
2008,06,28,04,12,11.70
2008,06,28,04,13,11.70
2008,06,28,04,14,11.80
2008,06,28,04,15,11.80
2008,06,28,04,16,11.80
2008,06,28,04,17,11.80
2008,06,28,04,18,11.80
2008,06,28,04,19,11.80
2008,06,28,04,20,11.80
2008,06,28,04,21,11.80
2008,06,28,04,22,11.80
2008,06,28,04,23,11.80
2008,06,28,04,24,11.80
2008,06,28,04,25,11.80
2008,06,28,04,26,11.80
2008,06,28,04,27,11.90
2008,06,28,04,28,11.90
2008,06,28,04,29,11.90
2008,06,28,04,30,12.00
2008,06,28,04,31,12.00
2008,06,28,04,32,12.00
2008,06,28,04,33,12.00
2008,06,28,04,34,12.00
2008,06,28,04,35,11.90
2008,06,28,04,36,11.90
2008,06,28,04,37,11.90
2008,06,28,04,38,11.90
2008,06,28,04,39,11.90
2008,06,28,04,40,11.90
2008,06,28,04,41,11.90
2008,06,28,04,42,11.90
2008,06,28,04,43,11.80
2008,06,28,04,44,11.80
2008,06,28,04,45,11.80
2008,06,28,04,46,11.80
2008,06,28,04,47,11.80
2008,06,28,04,48,11.80
2008,06,28,04,49,11.80
2008,06,28,04,50,11.80
2008,06,28,04,51,11.70
2008,06,28,04,52,11.70
2008,06,28,04,53,11.60
2008,06,28,04,54,11.60
2008,06,28,04,55,11.60
2008,06,28,04,56,11.60
2008,06,28,04,57,11.50
2008,06,28,04,58,11.50
2008,06,28,04,59,11.50
2008,06,28,05,00,11.40
2008,06,28,05,01,11.40
2008,06,28,05,02,11.40
2008,06,28,05,03,11.40
2008,06,28,05,04,11.40
2008,06,28,05,05,11.40
2008,06,28,05,06,11.40
2008,06,28,05,07,11.40
2008,06,28,05,08,11.40
2008,06,28,05,09,11.40
2008,06,28,05,10,11.30
2008,06,28,05,11,11.30
2008,06,28,05,12,11.30
2008,06,28,05,13,11.30
2008,06,28,05,14,11.30
2008,06,28,05,15,11.30
2008,06,28,05,16,11.20
2008,06,28,05,17,11.20
2008,06,28,05,18,11.20
2008,06,28,05,19,11.20
2008,06,28,05,20,11.20
2008,06,28,05,21,11.20
2008,06,28,05,22,11.20
2008,06,28,05,23,11.20
2008,06,28,05,24,11.20
2008,06,28,05,25,11.20
2008,06,28,05,26,11.20
2008,06,28,05,27,11.20
2008,06,28,05,28,11.20
2008,06,28,05,29,11.20
2008,06,28,05,30,11.30
2008,06,28,05,31,11.30
2008,06,28,05,32,11.30
2008,06,28,05,33,11.30
2008,06,28,05,34,11.40
2008,06,28,05,35,11.40
2008,06,28,05,36,11.40
2008,06,28,05,37,11.40
2008,06,28,05,38,11.40
2008,06,28,05,39,11.50
2008,06,28,05,40,11.50
2008,06,28,05,41,11.50
2008,06,28,05,42,11.50
2008,06,28,05,43,11.50
2008,06,28,05,44,11.50
2008,06,28,05,45,11.50
2008,06,28,05,46,11.50
2008,06,28,05,47,11.60
2008,06,28,05,48,11.60
2008,06,28,05,49,11.50
2008,06,28,05,50,11.50
2008,06,28,05,51,11.50
2008,06,28,05,52,11.50
2008,06,28,05,53,11.50
2008,06,28,05,54,11.50
2008,06,28,05,55,11.50
2008,06,28,05,56,11.50
2008,06,28,05,57,11.50
2008,06,28,05,58,11.50
2008,06,28,05,59,11.50
2008,06,28,06,00,11.50
2008,06,28,06,01,11.50
2008,06,28,06,02,11.60
2008,06,28,06,03,11.60
2008,06,28,06,04,11.60
2008,06,28,06,05,11.60
2008,06,28,06,06,11.60
2008,06,28,06,07,11.70
2008,06,28,06,08,11.80
2008,06,28,06,09,11.80
2008,06,28,06,10,11.90
2008,06,28,06,11,12.00
2008,06,28,06,12,12.10
2008,06,28,06,13,12.20
2008,06,28,06,14,12.20
2008,06,28,06,15,12.30
2008,06,28,06,16,12.40
2008,06,28,06,17,12.40
2008,06,28,06,18,12.40
2008,06,28,06,19,12.50
2008,06,28,06,20,12.50
2008,06,28,06,21,12.60
2008,06,28,06,22,12.60
2008,06,28,06,23,12.60
2008,06,28,06,24,12.70
2008,06,28,06,25,12.70
2008,06,28,06,26,12.80
2008,06,28,06,27,12.80
2008,06,28,06,28,12.90
2008,06,28,06,29,12.90
2008,06,28,06,30,13.00
2008,06,28,06,31,13.00
2008,06,28,06,32,13.10
2008,06,28,06,33,13.10
2008,06,28,06,34,13.20
2008,06,28,06,35,13.20
2008,06,28,06,36,13.20
2008,06,28,06,37,13.20
2008,06,28,06,38,13.30
2008,06,28,06,39,13.30
2008,06,28,06,40,13.30
2008,06,28,06,41,13.40
2008,06,28,06,42,13.50
2008,06,28,06,43,13.60
2008,06,28,06,44,13.80
2008,06,28,06,45,13.90
2008,06,28,06,46,14.00
2008,06,28,06,47,14.20
2008,06,28,06,48,14.30
2008,06,28,06,49,14.40
2008,06,28,06,50,14.60
2008,06,28,06,51,14.80
2008,06,28,06,52,15.00
2008,06,28,06,53,15.00
2008,06,28,06,54,15.20
2008,06,28,06,55,15.40
2008,06,28,06,56,15.60
2008,06,28,06,57,15.70
2008,06,28,06,58,16.00
2008,06,28,06,59,16.20
2008,06,28,07,00,16.30
2008,06,28,07,01,16.50
2008,06,28,07,02,16.60
2008,06,28,07,03,16.70
2008,06,28,07,04,16.80
2008,06,28,07,05,16.90
2008,06,28,07,06,17.00
2008,06,28,07,07,17.20
2008,06,28,07,08,17.30
2008,06,28,07,09,17.40
2008,06,28,07,10,17.50
2008,06,28,07,11,17.70
2008,06,28,07,12,17.80
2008,06,28,07,13,18.00
2008,06,28,07,14,18.10
2008,06,28,07,15,18.30
2008,06,28,07,16,18.40
2008,06,28,07,17,18.50
2008,06,28,07,18,18.60
2008,06,28,07,19,18.70
2008,06,28,07,20,18.80
2008,06,28,07,21,18.90
2008,06,28,07,22,18.90
2008,06,28,07,23,19.00
2008,06,28,07,24,19.10
2008,06,28,07,25,19.10
2008,06,28,07,26,19.20
2008,06,28,07,27,19.20
2008,06,28,07,28,19.30
2008,06,28,07,29,19.30
2008,06,28,07,30,19.40
2008,06,28,07,31,19.40
2008,06,28,07,32,19.50
2008,06,28,07,33,19.50
2008,06,28,07,34,19.50
2008,06,28,07,35,19.60
2008,06,28,07,36,19.60
2008,06,28,07,37,19.60
2008,06,28,07,38,19.60
2008,06,28,07,39,19.60
2008,06,28,07,40,19.70
2008,06,28,07,41,19.70
2008,06,28,07,42,19.70
2008,06,28,07,43,19.80
2008,06,28,07,44,19.80
2008,06,28,07,45,19.80
2008,06,28,07,46,19.90
2008,06,28,07,47,19.90
2008,06,28,07,48,20.00
2008,06,28,07,49,20.00
2008,06,28,07,50,20.10
2008,06,28,07,51,20.20
2008,06,28,07,52,20.20
2008,06,28,07,53,20.20
2008,06,28,07,54,20.20
2008,06,28,07,55,20.30
2008,06,28,07,56,20.30
2008,06,28,07,57,20.30
2008,06,28,07,58,20.30
2008,06,28,07,59,20.30
2008,06,28,08,00,20.30
2008,06,28,08,01,20.30
2008,06,28,08,02,20.30
2008,06,28,08,03,20.30
2008,06,28,08,04,20.30
2008,06,28,08,05,20.20
2008,06,28,08,06,20.20
2008,06,28,08,07,20.30
2008,06,28,08,08,20.30
2008,06,28,08,09,20.40
2008,06,28,08,10,20.40
2008,06,28,08,11,20.50
2008,06,28,08,12,20.50
2008,06,28,08,13,20.60
2008,06,28,08,14,20.60
2008,06,28,08,15,20.60
2008,06,28,08,16,20.60
2008,06,28,08,17,20.60
2008,06,28,08,18,20.60
2008,06,28,08,19,20.60
2008,06,28,08,20,20.60
2008,06,28,08,21,20.60
2008,06,28,08,22,20.70
2008,06,28,08,23,20.70
2008,06,28,08,24,20.70
2008,06,28,08,25,20.70
2008,06,28,08,26,20.80
2008,06,28,08,27,20.80
2008,06,28,08,28,20.80
2008,06,28,08,29,20.90
2008,06,28,08,30,20.80
2008,06,28,08,31,20.80
2008,06,28,08,32,20.80
2008,06,28,08,33,20.80
2008,06,28,08,34,20.90
2008,06,28,08,35,20.90
2008,06,28,08,36,21.00
2008,06,28,08,37,21.00
2008,06,28,08,38,21.00
2008,06,28,08,39,21.00
2008,06,28,08,40,21.00
2008,06,28,08,41,21.00
2008,06,28,08,42,21.10
2008,06,28,08,43,21.10
2008,06,28,08,44,21.10
2008,06,28,08,45,21.20
2008,06,28,08,46,21.20
2008,06,28,08,47,21.30
2008,06,28,08,48,21.30
2008,06,28,08,49,21.30
2008,06,28,08,50,21.30
2008,06,28,08,51,21.30
2008,06,28,08,52,21.40
2008,06,28,08,53,21.40
2008,06,28,08,54,21.40
2008,06,28,08,55,21.40
2008,06,28,08,56,21.50
2008,06,28,08,57,21.60
2008,06,28,08,58,21.60
2008,06,28,08,59,21.70
2008,06,28,09,00,21.70
2008,06,28,09,01,21.70
2008,06,28,09,02,21.70
2008,06,28,09,03,21.70
2008,06,28,09,04,21.60
2008,06,28,09,05,21.60
2008,06,28,09,06,21.60
2008,06,28,09,07,21.60
2008,06,28,09,08,21.70
2008,06,28,09,09,21.70
2008,06,28,09,10,21.80
2008,06,28,09,11,21.80
2008,06,28,09,12,21.90
2008,06,28,09,13,21.90
2008,06,28,09,14,21.90
2008,06,28,09,15,22.00
2008,06,28,09,16,22.00
2008,06,28,09,17,22.10
2008,06,28,09,18,22.10
2008,06,28,09,19,22.10
2008,06,28,09,20,22.20
2008,06,28,09,21,22.20
2008,06,28,09,22,22.20
2008,06,28,09,23,22.30
2008,06,28,09,24,22.30
2008,06,28,09,25,22.30
2008,06,28,09,26,22.20
2008,06,28,09,27,22.20
2008,06,28,09,28,22.20
2008,06,28,09,29,22.20
2008,06,28,09,30,22.30
2008,06,28,09,31,22.20
2008,06,28,09,32,22.30
2008,06,28,09,33,22.30
2008,06,28,09,34,22.30
2008,06,28,09,35,22.30
2008,06,28,09,36,22.40
2008,06,28,09,37,22.50
2008,06,28,09,38,22.60
2008,06,28,09,39,22.70
2008,06,28,09,40,22.80
2008,06,28,09,41,22.80
2008,06,28,09,42,22.80
2008,06,28,09,43,22.80
2008,06,28,09,44,22.80
2008,06,28,09,45,22.80
2008,06,28,09,46,22.80
2008,06,28,09,47,22.80
2008,06,28,09,48,22.80
2008,06,28,09,49,22.80
2008,06,28,09,50,22.80
2008,06,28,09,51,22.80
2008,06,28,09,52,22.80
2008,06,28,09,53,22.80
2008,06,28,09,54,22.80
2008,06,28,09,55,22.70
2008,06,28,09,56,22.60
2008,06,28,09,57,22.50
2008,06,28,09,58,22.50
2008,06,28,09,59,22.40
2008,06,28,10,00,22.30
2008,06,28,10,01,22.30
2008,06,28,10,02,22.20
2008,06,28,10,03,22.20
2008,06,28,10,04,22.20
2008,06,28,10,05,22.30
2008,06,28,10,06,22.30
2008,06,28,10,07,22.20
2008,06,28,10,08,22.20
2008,06,28,10,09,22.20
2008,06,28,10,10,22.10
2008,06,28,10,11,22.10
2008,06,28,10,12,22.10
2008,06,28,10,13,22.00
2008,06,28,10,14,21.90
2008,06,28,10,15,22.00
2008,06,28,10,16,22.00
2008,06,28,10,17,22.10
2008,06,28,10,18,22.20
2008,06,28,10,19,22.30
2008,06,28,10,20,22.20
2008,06,28,10,21,22.20
2008,06,28,10,22,22.20
2008,06,28,10,23,22.30
2008,06,28,10,24,22.30
2008,06,28,10,25,22.40
2008,06,28,10,26,22.50
2008,06,28,10,27,22.60
2008,06,28,10,28,22.60
2008,06,28,10,29,22.60
2008,06,28,10,30,22.50
2008,06,28,10,31,22.40
2008,06,28,10,32,22.30
2008,06,28,10,33,22.30
2008,06,28,10,34,22.20
2008,06,28,10,35,22.20
2008,06,28,10,36,22.20
2008,06,28,10,37,22.10
2008,06,28,10,38,22.20
2008,06,28,10,39,22.20
2008,06,28,10,40,22.20
2008,06,28,10,41,22.20
2008,06,28,10,42,22.20
2008,06,28,10,43,22.20
2008,06,28,10,44,22.20
2008,06,28,10,45,22.30
2008,06,28,10,46,22.30
2008,06,28,10,47,22.40
2008,06,28,10,48,22.40
2008,06,28,10,49,22.40
2008,06,28,10,50,22.60
2008,06,28,10,51,22.70
2008,06,28,10,52,22.70
2008,06,28,10,53,22.70
2008,06,28,10,54,22.70
2008,06,28,10,55,22.80
2008,06,28,10,56,22.90
2008,06,28,10,57,22.90
2008,06,28,10,58,23.00
2008,06,28,10,59,23.00
2008,06,28,11,00,22.90
2008,06,28,11,01,22.90
2008,06,28,11,02,22.80
2008,06,28,11,03,22.80
2008,06,28,11,04,22.80
2008,06,28,11,05,22.70
2008,06,28,11,06,22.80
2008,06,28,11,07,22.80
2008,06,28,11,08,22.80
2008,06,28,11,09,22.80
2008,06,28,11,10,23.00
2008,06,28,11,11,23.00
2008,06,28,11,12,23.10
2008,06,28,11,13,23.10
2008,06,28,11,14,23.20
2008,06,28,11,15,23.20
2008,06,28,11,16,23.20
2008,06,28,11,17,23.30
2008,06,28,11,18,23.30
2008,06,28,11,19,23.40
2008,06,28,11,20,23.40
2008,06,28,11,21,23.50
2008,06,28,11,22,23.60
2008,06,28,11,23,23.60
2008,06,28,11,24,23.70
2008,06,28,11,25,23.70
2008,06,28,11,26,23.70
2008,06,28,11,27,23.70
2008,06,28,11,28,23.60
2008,06,28,11,29,23.60
2008,06,28,11,30,23.50
2008,06,28,11,31,23.50
2008,06,28,11,32,23.40
2008,06,28,11,33,23.40
2008,06,28,11,34,23.40
2008,06,28,11,35,23.40
2008,06,28,11,36,23.50
2008,06,28,11,37,23.60
2008,06,28,11,38,23.70
2008,06,28,11,39,23.70
2008,06,28,11,40,23.80
2008,06,28,11,41,23.90
2008,06,28,11,42,23.90
2008,06,28,11,43,24.00
2008,06,28,11,44,24.00
2008,06,28,11,45,24.10
2008,06,28,11,46,24.10
2008,06,28,11,47,24.20
2008,06,28,11,48,24.30
2008,06,28,11,49,24.40
2008,06,28,11,50,24.40
2008,06,28,11,51,24.20
2008,06,28,11,52,24.10
2008,06,28,11,53,24.20
2008,06,28,11,54,24.20
2008,06,28,11,55,24.20
2008,06,28,11,56,24.20
2008,06,28,11,57,24.20
2008,06,28,11,58,24.20
2008,06,28,11,59,24.20
2008,06,28,12,00,24.20
2008,06,28,12,01,24.20
2008,06,28,12,02,24.20
2008,06,28,12,03,24.30
2008,06,28,12,04,24.30
2008,06,28,12,05,24.40
2008,06,28,12,06,24.50
2008,06,28,12,07,24.50
2008,06,28,12,08,24.40
2008,06,28,12,09,24.40
2008,06,28,12,10,24.40
2008,06,28,12,11,24.50
2008,06,28,12,12,24.60
2008,06,28,12,13,24.60
2008,06,28,12,14,24.60
2008,06,28,12,15,24.70
2008,06,28,12,16,24.80
2008,06,28,12,17,24.80
2008,06,28,12,18,24.90
2008,06,28,12,19,25.00
2008,06,28,12,20,25.10
2008,06,28,12,21,25.10
2008,06,28,12,22,25.10
2008,06,28,12,23,25.10
2008,06,28,12,24,25.00
2008,06,28,12,25,25.00
2008,06,28,12,26,24.90
2008,06,28,12,27,24.90
2008,06,28,12,28,24.90
2008,06,28,12,29,25.00
2008,06,28,12,30,25.10
2008,06,28,12,31,25.20
2008,06,28,12,32,25.20
2008,06,28,12,33,25.20
2008,06,28,12,34,25.10
2008,06,28,12,35,25.10
2008,06,28,12,36,25.10
2008,06,28,12,37,25.10
2008,06,28,12,38,25.20
2008,06,28,12,39,25.20
2008,06,28,12,40,25.20
2008,06,28,12,41,25.10
2008,06,28,12,42,25.10
2008,06,28,12,43,25.10
2008,06,28,12,44,25.00
2008,06,28,12,45,24.90
2008,06,28,12,46,24.90
2008,06,28,12,47,24.90
2008,06,28,12,48,24.90
2008,06,28,12,49,25.00
2008,06,28,12,50,25.00
2008,06,28,12,51,25.10
2008,06,28,12,52,25.10
2008,06,28,12,53,25.20
2008,06,28,12,54,25.10
2008,06,28,12,55,25.10
2008,06,28,12,56,25.30
2008,06,28,12,57,25.30
2008,06,28,12,58,25.20
2008,06,28,12,59,25.30
2008,06,28,13,00,25.30
2008,06,28,13,01,25.30
2008,06,28,13,02,25.20
2008,06,28,13,03,25.10
2008,06,28,13,04,25.10
2008,06,28,13,05,25.00
2008,06,28,13,06,25.00
2008,06,28,13,07,25.00
2008,06,28,13,08,25.10
2008,06,28,13,09,25.20
2008,06,28,13,10,25.30
2008,06,28,13,11,25.20
2008,06,28,13,12,25.20
2008,06,28,13,13,25.30
2008,06,28,13,14,25.30
2008,06,28,13,15,25.30
2008,06,28,13,16,25.30
2008,06,28,13,17,25.30
2008,06,28,13,18,25.40
2008,06,28,13,19,25.40
2008,06,28,13,20,25.50
2008,06,28,13,21,25.60
2008,06,28,13,22,25.60
2008,06,28,13,23,25.60
2008,06,28,13,24,25.60
2008,06,28,13,25,25.80
2008,06,28,13,26,25.80
2008,06,28,13,27,25.80
2008,06,28,13,28,25.80
2008,06,28,13,29,25.80
2008,06,28,13,30,25.90
2008,06,28,13,31,25.90
2008,06,28,13,32,25.90
2008,06,28,13,33,25.90
2008,06,28,13,34,25.90
2008,06,28,13,35,26.00
2008,06,28,13,36,26.10
2008,06,28,13,37,26.20
2008,06,28,13,38,26.30
2008,06,28,13,39,26.30
2008,06,28,13,40,26.30
2008,06,28,13,41,26.30
2008,06,28,13,42,26.30
2008,06,28,13,43,26.00
2008,06,28,13,44,25.90
2008,06,28,13,45,25.90
2008,06,28,13,46,25.90
2008,06,28,13,47,25.90
2008,06,28,13,48,25.90
2008,06,28,13,49,25.90
2008,06,28,13,50,25.90
2008,06,28,13,51,25.90
2008,06,28,13,52,25.90
2008,06,28,13,53,25.90
2008,06,28,13,54,26.00
2008,06,28,13,55,26.10
2008,06,28,13,56,26.20
2008,06,28,13,57,26.20
2008,06,28,13,58,26.30
2008,06,28,13,59,26.30
2008,06,28,14,00,26.30
2008,06,28,14,01,26.30
2008,06,28,14,02,26.20
2008,06,28,14,03,26.20
2008,06,28,14,04,26.20
2008,06,28,14,05,26.20
2008,06,28,14,06,26.20
2008,06,28,14,07,26.30
2008,06,28,14,08,26.40
2008,06,28,14,09,26.50
2008,06,28,14,10,26.60
2008,06,28,14,11,26.60
2008,06,28,14,12,26.60
2008,06,28,14,13,26.60
2008,06,28,14,14,26.50
2008,06,28,14,15,26.50
2008,06,28,14,16,26.50
2008,06,28,14,17,26.50
2008,06,28,14,18,26.60
2008,06,28,14,19,26.60
2008,06,28,14,20,26.60
2008,06,28,14,21,26.50
2008,06,28,14,22,26.50
2008,06,28,14,23,26.50
2008,06,28,14,24,26.40
2008,06,28,14,25,26.40
2008,06,28,14,26,26.30
2008,06,28,14,27,26.30
2008,06,28,14,28,26.30
2008,06,28,14,29,26.40
2008,06,28,14,30,26.50
2008,06,28,14,31,26.60
2008,06,28,14,32,26.60
2008,06,28,14,33,26.70
2008,06,28,14,34,26.70
2008,06,28,14,35,26.70
2008,06,28,14,36,26.80
2008,06,28,14,37,26.90
2008,06,28,14,38,26.90
2008,06,28,14,39,26.90
2008,06,28,14,40,26.80
2008,06,28,14,41,26.80
2008,06,28,14,42,26.80
2008,06,28,14,43,26.80
2008,06,28,14,44,26.80
2008,06,28,14,45,26.90
2008,06,28,14,46,27.00
2008,06,28,14,47,27.00
2008,06,28,14,48,27.10
2008,06,28,14,49,27.10
2008,06,28,14,50,27.20
2008,06,28,14,51,27.20
2008,06,28,14,52,27.30
2008,06,28,14,53,27.30
2008,06,28,14,54,27.40
2008,06,28,14,55,27.50
2008,06,28,14,56,27.50
2008,06,28,14,57,27.60
2008,06,28,14,58,27.60
2008,06,28,14,59,27.50
2008,06,28,15,00,27.50
2008,06,28,15,01,27.50
2008,06,28,15,02,27.50
2008,06,28,15,03,27.50
2008,06,28,15,04,27.60
2008,06,28,15,05,27.50
2008,06,28,15,06,27.50
2008,06,28,15,07,27.30
2008,06,28,15,08,27.30
2008,06,28,15,09,27.30
2008,06,28,15,10,27.30
2008,06,28,15,11,27.40
2008,06,28,15,12,27.40
2008,06,28,15,13,27.60
2008,06,28,15,14,27.60
2008,06,28,15,15,27.70
2008,06,28,15,16,27.70
2008,06,28,15,17,27.60
2008,06,28,15,18,27.70
2008,06,28,15,19,27.70
2008,06,28,15,20,27.70
2008,06,28,15,21,27.80
2008,06,28,15,22,27.80
2008,06,28,15,23,27.80
2008,06,28,15,24,27.70
2008,06,28,15,25,27.70
2008,06,28,15,26,27.70
2008,06,28,15,27,27.70
2008,06,28,15,28,27.60
2008,06,28,15,29,27.60
2008,06,28,15,30,27.60
2008,06,28,15,31,27.70
2008,06,28,15,32,27.70
2008,06,28,15,33,27.80
2008,06,28,15,34,27.90
2008,06,28,15,35,28.00
2008,06,28,15,36,28.00
2008,06,28,15,37,28.00
2008,06,28,15,38,28.00
2008,06,28,15,39,27.90
2008,06,28,15,40,27.90
2008,06,28,15,41,27.90
2008,06,28,15,42,27.80
2008,06,28,15,43,27.80
2008,06,28,15,44,27.90
2008,06,28,15,45,27.90
2008,06,28,15,46,27.80
2008,06,28,15,47,27.80
2008,06,28,15,48,27.70
2008,06,28,15,49,27.60
2008,06,28,15,50,27.60
2008,06,28,15,51,27.50
2008,06,28,15,52,27.40
2008,06,28,15,53,27.40
2008,06,28,15,54,27.50
2008,06,28,15,55,27.50
2008,06,28,15,56,27.60
2008,06,28,15,57,27.60
2008,06,28,15,58,27.60
2008,06,28,15,59,27.60
2008,06,28,16,00,27.60
2008,06,28,16,01,27.60
2008,06,28,16,02,27.50
2008,06,28,16,03,27.40
2008,06,28,16,04,27.40
2008,06,28,16,05,27.30
2008,06,28,16,06,27.30
2008,06,28,16,07,27.30
2008,06,28,16,08,27.30
2008,06,28,16,09,27.30
2008,06,28,16,10,27.30
2008,06,28,16,11,27.30
2008,06,28,16,12,27.40
2008,06,28,16,13,27.40
2008,06,28,16,14,27.50
2008,06,28,16,15,27.40
2008,06,28,16,16,27.50
2008,06,28,16,17,27.50
2008,06,28,16,18,27.60
2008,06,28,16,19,27.60
2008,06,28,16,20,27.60
2008,06,28,16,21,27.70
2008,06,28,16,22,27.70
2008,06,28,16,23,27.70
2008,06,28,16,24,27.70
2008,06,28,16,25,27.70
2008,06,28,16,26,27.60
2008,06,28,16,27,27.60
2008,06,28,16,28,27.50
2008,06,28,16,29,27.60
2008,06,28,16,30,27.70
2008,06,28,16,31,27.70
2008,06,28,16,32,27.70
2008,06,28,16,33,27.70
2008,06,28,16,34,27.70
2008,06,28,16,35,27.60
2008,06,28,16,36,27.40
2008,06,28,16,37,27.40
2008,06,28,16,38,27.40
2008,06,28,16,39,27.30
2008,06,28,16,40,27.30
2008,06,28,16,41,27.30
2008,06,28,16,42,27.30
2008,06,28,16,43,27.30
2008,06,28,16,44,27.30
2008,06,28,16,45,27.30
2008,06,28,16,46,27.40
2008,06,28,16,47,27.50
2008,06,28,16,48,27.50
2008,06,28,16,49,27.60
2008,06,28,16,50,27.50
2008,06,28,16,51,27.40
2008,06,28,16,52,27.40
2008,06,28,16,53,27.40
2008,06,28,16,54,27.50
2008,06,28,16,55,27.60
2008,06,28,16,56,27.70
2008,06,28,16,57,27.70
2008,06,28,16,58,27.80
2008,06,28,16,59,27.80
2008,06,28,17,00,27.80
2008,06,28,17,01,27.70
2008,06,28,17,02,27.70
2008,06,28,17,03,27.70
2008,06,28,17,04,27.70
2008,06,28,17,05,27.70
2008,06,28,17,06,27.70
2008,06,28,17,07,27.60
2008,06,28,17,08,27.60
2008,06,28,17,09,27.60
2008,06,28,17,10,27.60
2008,06,28,17,11,27.70
2008,06,28,17,12,27.70
2008,06,28,17,13,27.80
2008,06,28,17,14,27.80
2008,06,28,17,15,27.90
2008,06,28,17,16,27.80
2008,06,28,17,17,27.80
2008,06,28,17,18,27.70
2008,06,28,17,19,27.70